When you browse on this site, cookies collect data to enhance your experience and personalize the content and advertising you see.
Visit our Privacy Policy to learn more. By continuing to use the site, you agree to this use of cookies and data.
  • en Suisse
  • Liste des pays
  • À 7 jours
  • Température de l'eau
  • Carte météo
  • Widgets météo
  • user-avatar
    Se connecter

    Météo par heure à Nashavar

    Ce jour, 16 Octobre, Mercredi

    Heure Température Précipitation Vent Pression Humidité
    00:00 +27°C° 0 mm 1 m/s 732 mmHg 49%
    01:00 +24°C° 0 mm 0 m/s 731 mmHg 50%
    02:00 +24°C° 0 mm 0 m/s 731 mmHg 51%
    03:00 +23°C° 0 mm 0 m/s 731 mmHg 52%
    04:00 +23°C° 0 mm 0 m/s 731 mmHg 52%
    05:00 +23°C° 0 mm 0 m/s 731 mmHg 55%
    06:00 +24°C° 0 mm 0 m/s 731 mmHg 51%
    07:00 +25°C° 0 mm 0 m/s 732 mmHg 48%
    08:00 +28°C° 0 mm 1 m/s 732 mmHg 45%
    09:00 +29°C° 0 mm 1 m/s 732 mmHg 42%
    10:00 +30°C° 0 mm 1 m/s 732 mmHg 40%
    11:00 +31°C° 0 mm 2 m/s 733 mmHg 37%
    12:00 +32°C° 0 mm 2 m/s 732 mmHg 35%
    13:00 +32°C° 0 mm 1 m/s 731 mmHg 33%
    14:00 +33°C° 0 mm 1 m/s 731 mmHg 31%
    15:00 +34°C° 0 mm 2 m/s 731 mmHg 32%
    16:00 +32°C° 0 mm 2 m/s 731 mmHg 32%
    17:00 +32°C° 0 mm 2 m/s 731 mmHg 33%
    18:00 +31°C° 0 mm 2 m/s 731 mmHg 37%
    19:00 +30°C° 0 mm 1 m/s 731 mmHg 41%
    20:00 +28°C° 0 mm 1 m/s 731 mmHg 45%
    21:00 +28°C° 0 mm 1 m/s 731 mmHg 46%
    22:00 +27°C° 0 mm 1 m/s 731 mmHg 48%
    23:00 +25°C° 0 mm 0 m/s 731 mmHg 50%

    Demain, 17 Octobre, Jeudi

    Heure Température Précipitation Vent Pression Humidité
    00:00 +24°C° 0 mm 0 m/s 731 mmHg 51%
    01:00 +24°C° 0 mm 0 m/s 731 mmHg 52%
    02:00 +24°C° 0 mm 0 m/s 731 mmHg 53%
    03:00 +23°C° 0 mm 0 m/s 731 mmHg 54%
    04:00 +25°C° 0 mm 1 m/s 730 mmHg 55%
    05:00 +24°C° 0 mm 1 m/s 730 mmHg 56%
    06:00 +23°C° 0 mm 0 m/s 731 mmHg 53%
    07:00 +24°C° 0 mm 0 m/s 731 mmHg 51%
    08:00 +25°C° 0 mm 0 m/s 732 mmHg 48%
    09:00 +28°C° 0 mm 1 m/s 732 mmHg 44%
    10:00 +29°C° 0 mm 1 m/s 731 mmHg 40%
    11:00 +31°C° 0 mm 1 m/s 731 mmHg 36%
    12:00 +31°C° 0 mm 1 m/s 731 mmHg 33%
    13:00 +32°C° 0 mm 2 m/s 731 mmHg 31%
    14:00 +34°C° 0 mm 2 m/s 730 mmHg 28%
    15:00 +34°C° 0 mm 2 m/s 730 mmHg 29%
    16:00 +32°C° 0 mm 2 m/s 730 mmHg 30%
    17:00 +33°C° 0 mm 3 m/s 729 mmHg 31%
    18:00 +31°C° 0 mm 2 m/s 730 mmHg 34%
    19:00 +30°C° 0 mm 2 m/s 730 mmHg 37%
    20:00 +29°C° 0 mm 1 m/s 730 mmHg 40%
    21:00 +28°C° 0 mm 1 m/s 730 mmHg 41%
    22:00 +28°C° 0 mm 1 m/s 731 mmHg 43%
    23:00 +27°C° 0 mm 1 m/s 731 mmHg 44%

    Après-demain, 18 Octobre, Vendredi

    Heure Température Précipitation Vent Pression Humidité
    00:00 +26°C° 0.2 mm 1 m/s 731 mmHg 47%
    01:00 +25°C° 0.2 mm 1 m/s 731 mmHg 51%
    02:00 +25°C° 0.2 mm 2 m/s 731 mmHg 54%
    03:00 +24°C° 0.3 mm 1 m/s 730 mmHg 56%
    04:00 +24°C° 0.3 mm 1 m/s 730 mmHg 58%
    05:00 +23°C° 0.3 mm 1 m/s 730 mmHg 60%
    06:00 +24°C° 0 mm 1 m/s 731 mmHg 57%
    07:00 +25°C° 0 mm 1 m/s 731 mmHg 53%
    08:00 +26°C° 0 mm 1 m/s 732 mmHg 49%
    09:00 +27°C° 0 mm 1 m/s 732 mmHg 44%
    10:00 +28°C° 0 mm 1 m/s 732 mmHg 39%
    11:00 +30°C° 0 mm 1 m/s 732 mmHg 33%
    12:00 +30°C° 0.3 mm 2 m/s 732 mmHg 34%
    13:00 +29°C° 0.3 mm 3 m/s 732 mmHg 35%
    14:00 +29°C° 0.3 mm 5 m/s 731 mmHg 36%
    15:00 +29°C° 0 mm 4 m/s 731 mmHg 35%
    16:00 +29°C° 0 mm 3 m/s 731 mmHg 34%
    17:00 +28°C° 0 mm 2 m/s 730 mmHg 34%
    18:00 +28°C° 0 mm 1 m/s 731 mmHg 34%
    19:00 +27°C° 0 mm 1 m/s 731 mmHg 35%
    20:00 +27°C° 0 mm 1 m/s 732 mmHg 36%
    21:00 +26°C° 0 mm 1 m/s 732 mmHg 36%
    22:00 +26°C° 0 mm 1 m/s 732 mmHg 36%
    23:00 +26°C° 0 mm 1 m/s 732 mmHg 36%

    19 Octobre, Samedi

    Heure Température Précipitation Vent Pression Humidité
    00:00 +25°C° 0 mm 1 m/s 732 mmHg 39%
    01:00 +25°C° 0 mm 1 m/s 732 mmHg 42%
    02:00 +24°C° 0 mm 1 m/s 732 mmHg 45%
    03:00 +23°C° 0.3 mm 1 m/s 732 mmHg 47%
    04:00 +23°C° 0.3 mm 1 m/s 732 mmHg 48%
    05:00 +23°C° 0.3 mm 1 m/s 732 mmHg 50%
    06:00 +23°C° 0.3 mm 1 m/s 732 mmHg 48%
    07:00 +24°C° 0.3 mm 1 m/s 733 mmHg 47%
    08:00 +25°C° 0.3 mm 1 m/s 733 mmHg 45%
    09:00 +26°C° 0.2 mm 1 m/s 734 mmHg 41%
    10:00 +27°C° 0.2 mm 1 m/s 734 mmHg 37%
    11:00 +28°C° 0.2 mm 1 m/s 734 mmHg 34%
    12:00 +29°C° 0 mm 1 m/s 734 mmHg 32%
    13:00 +30°C° 0 mm 1 m/s 733 mmHg 30%
    14:00 +31°C° 0 mm 1 m/s 733 mmHg 28%
    15:00 +28°C° 0 mm 0 m/s 733 mmHg 30%
    16:00 +28°C° 0 mm 0 m/s 732 mmHg 32%
    17:00 +28°C° 0 mm 0 m/s 732 mmHg 34%
    18:00 +27°C° 0 mm 0 m/s 732 mmHg 36%
    19:00 +28°C° 0 mm 1 m/s 732 mmHg 38%
    20:00 +27°C° 0 mm 1 m/s 733 mmHg 40%
    21:00 +26°C° 0 mm 1 m/s 733 mmHg 41%
    22:00 +26°C° 0 mm 1 m/s 733 mmHg 42%
    23:00 +25°C° 0 mm 1 m/s 733 mmHg 43%

    20 Octobre, Dimanche

    Heure Température Précipitation Vent Pression Humidité
    00:00 +25°C° 0 mm 1 m/s 732 mmHg 44%
    01:00 +24°C° 0 mm 1 m/s 732 mmHg 45%
    02:00 +24°C° 0 mm 1 m/s 732 mmHg 45%
    03:00 +23°C° 0 mm 1 m/s 732 mmHg 46%
    04:00 +23°C° 0 mm 1 m/s 732 mmHg 47%
    05:00 +23°C° 0 mm 1 m/s 732 mmHg 47%
    06:00 +24°C° 0 mm 1 m/s 732 mmHg 44%
    07:00 +25°C° 0 mm 1 m/s 732 mmHg 41%
    08:00 +26°C° 0 mm 1 m/s 732 mmHg 38%
    09:00 +27°C° 0 mm 1 m/s 733 mmHg 35%
    10:00 +28°C° 0 mm 1 m/s 733 mmHg 32%
    11:00 +29°C° 0 mm 1 m/s 733 mmHg 29%
    12:00 +30°C° 0 mm 1 m/s 732 mmHg 27%
    13:00 +31°C° 0 mm 1 m/s 732 mmHg 25%
    14:00 +32°C° 0 mm 1 m/s 731 mmHg 24%
    15:00 +32°C° 0 mm 1 m/s 731 mmHg 25%
    16:00 +31°C° 0 mm 1 m/s 731 mmHg 27%
    17:00 +31°C° 0 mm 1 m/s 730 mmHg 29%
    18:00 +30°C° 0 mm 1 m/s 731 mmHg 31%
    19:00 +29°C° 0 mm 1 m/s 731 mmHg 32%
    20:00 +28°C° 0 mm 1 m/s 731 mmHg 34%
    21:00 +27°C° 0 mm 1 m/s 731 mmHg 36%
    22:00 +27°C° 0 mm 1 m/s 731 mmHg 38%
    23:00 +26°C° 0 mm 1 m/s 731 mmHg 40%

    21 Octobre, Lundi

    Heure Température Précipitation Vent Pression Humidité
    00:00 +25°C° 0 mm 1 m/s 731 mmHg 40%
    01:00 +25°C° 0 mm 1 m/s 731 mmHg 41%
    02:00 +25°C° 0 mm 1 m/s 731 mmHg 42%
    03:00 +24°C° 0 mm 1 m/s 731 mmHg 43%
    04:00 +24°C° 0 mm 1 m/s 730 mmHg 44%
    05:00 +21°C° 0 mm 0 m/s 730 mmHg 44%
    06:00 +22°C° 0 mm 0 m/s 731 mmHg 42%
    07:00 +23°C° 0 mm 0 m/s 731 mmHg 39%
    08:00 +24°C° 0 mm 0 m/s 732 mmHg 36%
    09:00 +25°C° 0 mm 0 m/s 732 mmHg 33%
    10:00 +28°C° 0 mm 1 m/s 732 mmHg 31%
    11:00 +29°C° 0 mm 1 m/s 732 mmHg 29%
    12:00 +30°C° 0 mm 1 m/s 731 mmHg 28%
    13:00 +31°C° 0 mm 1 m/s 731 mmHg 26%
    14:00 +31°C° 0 mm 1 m/s 730 mmHg 25%
    15:00 +31°C° 0 mm 1 m/s 730 mmHg 27%
    16:00 +31°C° 0 mm 1 m/s 730 mmHg 29%
    17:00 +30°C° 0 mm 1 m/s 729 mmHg 31%
    18:00 +29°C° 0 mm 1 m/s 729 mmHg 33%
    19:00 +28°C° 0 mm 1 m/s 730 mmHg 36%
    20:00 +27°C° 0 mm 1 m/s 730 mmHg 38%
    21:00 +27°C° 0 mm 1 m/s 730 mmHg 39%
    22:00 +26°C° 0 mm 1 m/s 730 mmHg 41%
    23:00 +25°C° 0 mm 1 m/s 730 mmHg 42%
    Voir plus